H1 CPF 2 NER 2021 11 10 9 314 01 glonass139 H2 1808601 9139 43687 2021 11 10 0 0 0 2021 11 13 23 45 0 900 1 1 0 0 0 1 H9 10 0 59528 0.00000 0 23905762.779 8900778.347 -135094.886 10 0 59528 900.00000 0 23742945.445 8703453.689 -3332548.902 10 0 59528 1800.00000 0 23188821.607 8421356.997 -6465243.111 10 0 59528 2700.00000 0 22244162.444 8110098.249 -9472268.191 10 0 59528 3600.00000 0 20922953.281 7824766.589 -12295125.033 10 0 59528 4500.00000 0 19251952.627 7617387.292 -14878869.117 10 0 59528 5400.00000 0 17269730.053 7534516.107 -17173186.974 10 0 59528 6300.00000 0 15025222.078 7615073.889 -19133383.150 10 0 59528 7200.00000 0 12575865.751 7888514.227 -20721257.728 10 0 59528 8100.00000 0 9985387.393 8373402.799 -21905856.879 10 0 59528 9000.00000 0 7321338.485 9076469.676 -22664081.429 10 0 59528 9900.00000 0 4652481.515 9992175.748 -22981141.280 10 0 59528 10800.00000 0 2046134.685 11102812.618 -22850846.660 10 0 59528 11700.00000 0 -434413.864 12379132.665 -22275730.416 10 0 59528 12600.00000 0 -2732314.560 13781483.449 -21266998.851 10 0 59528 13500.00000 0 -4799287.535 15261399.179 -19844312.067 10 0 59528 14400.00000 0 -6597387.997 16763582.557 -18035398.053 10 0 59528 15300.00000 0 -8100332.833 18228193.584 -15875508.142 10 0 59528 16200.00000 0 -9294334.083 19593348.834 -13406724.628 10 0 59528 17100.00000 0 -10178405.827 20797725.700 -10677134.287 10 0 59528 18000.00000 0 -10764133.204 21783161.482 -7739884.434 10 0 59528 18900.00000 0 -11074915.187 22497137.475 -4652140.458 10 0 59528 19800.00000 0 -11144714.998 22895043.048 -1473965.849 10 0 59528 20700.00000 0 -11016372.776 22942124.127 1732852.639 10 0 59528 21600.00000 0 -10739553.596 22615033.985 4906011.055 10 0 59528 22500.00000 0 -10368419.173 21902921.226 7983901.489 10 0 59528 23400.00000 0 -9959122.862 20808009.549 10906808.298 10 0 59528 24300.00000 0 -9567234.753 19345645.357 13618063.975 10 0 59528 25200.00000 0 -9245206.076 17543811.702 16065142.349 10 0 59528 26100.00000 0 -9039979.997 15442129.322 18200668.353 10 0 59528 27000.00000 0 -8990849.314 13090386.747 19983325.633 10 0 59528 27900.00000 0 -9127650.782 10546660.712 21378645.482 10 0 59528 28800.00000 0 -9469371.429 7875104.849 22359662.998 10 0 59528 29700.00000 0 -10023224.913 5143497.822 22907428.994 10 0 59528 30600.00000 0 -10784236.322 2420651.612 23011368.901 10 0 59528 31500.00000 0 -11735352.776 -226213.824 22669482.539 10 0 59528 32400.00000 0 -12848075.503 -2734022.287 21888381.451 10 0 59528 33300.00000 0 -14083587.603 -5046215.350 20683163.189 10 0 59528 34200.00000 0 -15394331.271 -7114851.731 19077124.716 10 0 59528 35100.00000 0 -16725969.644 -8902346.419 17101319.813 10 0 59528 36000.00000 0 -18019652.429 -10382778.536 14793968.068 10 0 59528 36900.00000 0 -19214491.547 -11542714.401 12199725.783 10 0 59528 37800.00000 0 -20250144.096 -12381512.217 9368831.725 10 0 59528 38700.00000 0 -21069394.813 -12911096.064 6356143.081 10 0 59528 39600.00000 0 -21620629.773 -13155208.801 3220079.422 10 0 59528 40500.00000 0 -21860097.143 -13148175.401 21494.467 10 0 59528 41400.00000 0 -21753859.184 -12933228.755 -3177502.854 10 0 59528 42300.00000 0 -21279352.232 -12560468.543 -6314755.068 10 0 59528 43200.00000 0 -20426487.635 -12084539.518 -9329266.923 10 0 59528 44100.00000 0 -19198245.615 -11562127.571 -12162396.206 10 0 59528 45000.00000 0 -17610735.439 -11049379.967 -14759000.744 10 0 59528 45900.00000 0 -15692717.697 -10599359.507 -17068518.620 10 0 59528 46800.00000 0 -13484607.241 -10259641.118 -19045959.875 10 0 59528 47700.00000 0 -11036997.304 -10070153.395 -20652789.722 10 0 59528 48600.00000 0 -8408765.615 -10061357.292 -21857685.603 10 0 59528 49500.00000 0 -5664840.847 -10252839.860 -22637152.966 10 0 59528 50400.00000 0 -2873722.279 -10652383.283 -22975987.441 10 0 59528 51300.00000 0 -104855.777 -11255549.318 -22867574.255 10 0 59528 52200.00000 0 2574024.766 -12045797.305 -22314018.918 10 0 59528 53100.00000 0 5099479.787 -12995131.280 -21326106.527 10 0 59528 54000.00000 0 7414762.871 -14065249.201 -19923090.449 10 0 59528 54900.00000 0 9471936.417 -15209145.984 -18132314.470 10 0 59528 55800.00000 0 11233616.322 -16373102.644 -15988675.867 10 0 59528 56700.00000 0 12674273.732 -17498977.431 -13533940.018 10 0 59528 57600.00000 0 13781040.539 -18526701.905 -10815920.194 10 0 59528 58500.00000 0 14553986.253 -19396876.128 -7887538.980 10 0 59528 59400.00000 0 15005856.385 -20053352.926 -4805790.217 10 0 59528 60300.00000 0 15161285.210 -20445701.660 -1630622.331 10 0 59528 61200.00000 0 15055517.984 -20531447.108 1576234.325 10 0 59528 62100.00000 0 14732698.445 -20277988.782 4752472.578 10 0 59528 63000.00000 0 14243795.582 -19664119.656 7836421.895 10 0 59528 63900.00000 0 13644258.665 -18681080.427 10768246.048 10 0 59528 64800.00000 0 12991500.639 -17333105.161 13491101.540 10 0 59528 65700.00000 0 12342316.745 -15637435.656 15952234.482 10 0 59528 66600.00000 0 11750347.484 -13623804.146 18103994.990 10 0 59528 67500.00000 0 11263692.632 -11333406.081 19904750.299 10 0 59528 68400.00000 0 10922776.246 -8817405.708 21319679.953 10 0 59528 69300.00000 0 10758551.687 -6135036.359 22321438.813 10 0 59528 70200.00000 0 10791121.272 -3351373.717 22890676.306 10 0 59528 71100.00000 0 11028827.729 -534873.413 23016402.991 10 0 59528 72000.00000 0 11467855.049 2245226.132 22696198.189 10 0 59528 72900.00000 0 12092355.215 4921529.561 21936255.255 10 0 59528 73800.00000 0 12875095.677 7431032.004 20751263.728 10 0 59528 74700.00000 0 13778600.915 9717483.999 19164130.404 10 0 59528 75600.00000 0 14756741.082 11733477.408 17205544.104 10 0 59528 76500.00000 0 15756702.115 13442167.012 14913391.577 10 0 59528 77400.00000 0 16721255.696 14818557.133 12332034.752 10 0 59528 78300.00000 0 17591234.749 15850300.495 9511462.167 10 0 59528 79200.00000 0 18308111.163 16537976.371 6506329.808 10 0 59528 80100.00000 0 18816567.703 16894836.590 3374909.102 10 0 59528 81000.00000 0 19066955.671 16946030.030 177961.707 10 0 59528 81900.00000 0 19017534.299 16727338.217 -3022437.459 10 0 59528 82800.00000 0 18636396.726 16283475.199 -6164106.007 10 0 59528 83700.00000 0 17902999.858 15666023.330 -9185965.100 10 0 59528 84600.00000 0 16809232.090 14931092.220 -12029231.724 10 0 59528 85500.00000 0 15359972.129 14136800.028 -14638568.279 10 0 59529 0.00000 0 13573113.732 13340684.008 -16963166.299 10 0 59529 900.00000 0 11479052.495 12597149.918 -18957743.711 10 0 59529 1800.00000 0 9119657.122 11955069.742 -20583432.475 10 0 59529 2700.00000 0 6546763.671 11455628.550 -21808543.024 10 0 59529 3600.00000 0 3820256.966 11130513.097 -22609187.006 10 0 59529 4500.00000 0 1005817.666 11000518.879 -22969747.186 10 0 59529 5400.00000 0 -1827571.458 11074634.985 -22883184.975 10 0 59529 6300.00000 0 -4610256.468 11349645.715 -22351179.436 10 0 59529 7200.00000 0 -7274570.951 11810266.013 -21384094.976 10 0 59529 8100.00000 0 -9757411.911 12429805.035 -20000778.321 10 0 59529 9000.00000 0 -12002625.782 13171329.733 -18228188.699 10 0 59529 9900.00000 0 -13963105.334 13989279.073 -16100868.524 10 0 59529 10800.00000 0 -15602510.570 14831460.270 -13660265.051 10 0 59529 11700.00000 0 -16896542.529 15641342.193 -10953916.468 10 0 59529 12600.00000 0 -17833717.730 16360548.366 -8034518.764 10 0 59529 13500.00000 0 -18415612.267 16931443.516 -4958892.113 10 0 59529 14400.00000 0 -18656566.927 17299703.693 -1786867.564 10 0 59529 15300.00000 0 -18582867.533 17416760.714 1419883.423 10 0 59529 16200.00000 0 -18231436.898 17242017.238 4599053.083 10 0 59529 17100.00000 0 -17648095.310 16744738.602 7688911.022 10 0 59529 18000.00000 0 -16885464.450 15905541.545 10629503.270 10 0 59529 18900.00000 0 -16000604.431 14717417.053 13363813.259 10 0 59529 19800.00000 0 -15052484.405 13186244.410 15838862.281 10 0 59529 20700.00000 0 -14099393.738 11330774.965 18006728.457 10 0 59529 21600.00000 0 -13196402.673 9182086.273 19825465.288 10 0 59529 22500.00000 0 -12392978.808 6782529.185 21259903.016 10 0 59529 23400.00000 0 -11730858.744 4184211.436 22282318.422 10 0 59529 24300.00000 0 -11242263.256 1447080.064 22872961.345 10 0 59529 25200.00000 0 -10948529.775 -1363318.714 23020428.868 10 0 59529 26100.00000 0 -10859218.582 -4178310.439 22721880.778 10 0 59529 27000.00000 0 -10971729.423 -6928693.276 21983092.743 10 0 59529 27900.00000 0 -11271444.206 -9547362.678 20818346.316 10 0 59529 28800.00000 0 -11732389.784 -11971852.610 19250157.690 10 0 59529 29700.00000 0 -12318393.345 -14146689.543 17308849.823 10 0 59529 30600.00000 0 -12984682.512 -16025462.812 15031975.282 10 0 59529 31500.00000 0 -13679863.812 -17572526.289 12463599.894 10 0 59529 32400.00000 0 -14348197.148 -18764261.345 9653459.909 10 0 59529 33300.00000 0 -14932071.311 -19589848.780 6656007.782 10 0 59529 34200.00000 0 -15374576.723 -20051517.589 3529364.224 10 0 59529 35100.00000 0 -15622067.011 -20164260.093 334196.054 10 0 59529 36000.00000 0 -15626601.148 -19955025.290 -2867458.718 10 0 59529 36900.00000 0 -15348162.277 -19461424.073 -6013395.809 10 0 59529 37800.00000 0 -14756558.476 -18730000.701 -9042455.929 10 0 59529 38700.00000 0 -13832923.715 -17814143.287 -11895718.441 10 0 59529 39600.00000 0 -12570753.899 -16771721.520 -14517653.491 10 0 59529 40500.00000 0 -10976432.495 -15662551.538 -16857209.532 10 0 59529 41400.00000 0 -9069221.611 -14545795.314 -18868814.423 10 0 59529 42300.00000 0 -6880717.133 -13477404.775 -20513269.907 10 0 59529 43200.00000 0 -4453789.056 -12507718.971 -21758521.582 10 0 59529 44100.00000 0 -1841049.925 -11679316.112 -22580288.985 10 0 59529 45000.00000 0 897085.635 -11025211.466 -22962543.181 10 0 59529 45900.00000 0 3694670.174 -10567477.375 -22897822.383 10 0 59529 46800.00000 0 6482727.385 -10316343.657 -22387379.310 10 0 59529 47700.00000 0 9191886.719 -10269816.300 -21441157.314 10 0 59529 48600.00000 0 11755039.080 -10413830.312 -20077595.685 10 0 59529 49500.00000 0 14109903.129 -10722929.847 -18323267.900 10 0 59529 50400.00000 0 16201395.251 -11161446.392 -16212359.934 10 0 59529 51300.00000 0 17983704.672 -11685124.523 -13785998.962 10 0 59529 52200.00000 0 19421987.527 -12243125.756 -11091445.750 10 0 59529 53100.00000 0 20493609.722 -12780324.878 -8181166.986 10 0 59529 54000.00000 0 21188887.634 -13239800.743 -5111806.141 10 0 59529 54900.00000 0 21511296.895 -13565415.263 -1943073.591 10 0 59529 55800.00000 0 21477142.021 -13704370.711 1263421.559 10 0 59529 56700.00000 0 21114702.499 -13609636.508 4445374.459 10 0 59529 57600.00000 0 20462892.979 -13242142.411 7540998.275 10 0 59529 58500.00000 0 19569495.585 -12572645.167 10490224.529 10 0 59529 59400.00000 0 18489040.167 -11583189.741 13235866.498 10 0 59529 60300.00000 0 17280422.734 -10268103.482 15724723.198 10 0 59529 61200.00000 0 16004362.874 -8634481.468 17908602.885 10 0 59529 62100.00000 0 14720807.186 -6702142.546 19745247.004 10 0 59529 63000.00000 0 13486387.393 -4503057.668 21199137.726 10 0 59529 63900.00000 0 12352039.091 -2080273.992 22242174.537 10 0 59529 64800.00000 0 11360879.892 513621.136 22854208.047 10 0 59529 65700.00000 0 10546434.577 3218433.478 23023421.808 10 0 59529 66600.00000 0 9931280.374 5968613.346 22746555.638 10 0 59529 67500.00000 0 9526167.885 8695733.317 22028966.722 10 0 59529 68400.00000 0 9329653.572 11331091.082 20884527.527 10 0 59529 69300.00000 0 9328258.652 13808331.096 19335362.255 10 0 59529 70200.00000 0 9497147.516 16065977.814 17411426.391 10 0 59529 71100.00000 0 9801297.343 18049776.773 15149936.527 10 0 59529 72000.00000 0 10197110.240 19714747.174 12594660.441 10 0 59529 72900.00000 0 10634400.627 21026861.263 9795079.977 10 0 59529 73800.00000 0 11058674.896 21964281.064 6805441.823 10 0 59529 74700.00000 0 11413607.665 22518100.629 3683713.634 10 0 59529 75600.00000 0 11643610.289 22692562.656 490465.001 10 0 59529 76500.00000 0 11696383.144 22504740.164 -2712305.427 10 0 59529 77400.00000 0 11525343.321 21983696.164 -5862373.888 10 0 59529 78300.00000 0 11091824.208 21169156.295 -8898502.959 10 0 59529 79200.00000 0 10366952.665 20109749.981 -11761636.563 10 0 59529 80100.00000 0 9333122.912 18860894.048 -14396054.601 10 0 59529 81000.00000 0 7985003.088 17482408.004 -16750464.079 10 0 59529 81900.00000 0 6330030.057 16035961.608 -18779004.846 10 0 59529 82800.00000 0 4388369.729 14582462.552 -20442149.670 10 0 59529 83700.00000 0 2192342.658 13179494.645 -21707480.625 10 0 59529 84600.00000 0 -214662.689 11878914.650 -22550326.287 10 0 59529 85500.00000 0 -2779744.824 10724709.260 -22954246.975 10 0 59530 0.00000 0 -5442448.195 9751202.584 -22911358.457 10 0 59530 900.00000 0 -8137046.675 8981689.050 -22422487.536 10 0 59530 1800.00000 0 -10795053.168 8427550.346 -21497156.566 10 0 59530 2700.00000 0 -13347855.774 8087891.353 -20153397.071 10 0 59530 3600.00000 0 -15729367.170 7949711.151 -18417396.033 10 0 59530 4500.00000 0 -17878578.127 7988600.518 -16322981.850 10 0 59530 5400.00000 0 -19741908.462 8169935.594 -13910960.121 10 0 59530 6300.00000 0 -21275257.438 8450516.224 -11228312.425 10 0 59530 7200.00000 0 -22445668.206 8780578.602 -8327274.154 10 0 59530 8100.00000 0 -23232537.270 9106095.889 -5264309.933 10 0 59530 9000.00000 0 -23628319.235 9371268.346 -2099007.184 10 0 59530 9900.00000 0 -23638698.394 9521096.549 1107089.721 10 0 59530 10800.00000 0 -23282221.401 9503927.893 4291681.334 10 0 59530 11700.00000 0 -22589407.985 9273867.941 7392926.963 10 0 59530 12600.00000 0 -21601378.599 8792954.201 10350646.272 10 0 59530 13500.00000 0 -20368058.139 8033000.233 13107485.075 10 0 59530 14400.00000 0 -18946032.317 6977032.131 15610022.788 10 0 59530 15300.00000 0 -17396147.526 5620256.895 17809800.365 10 0 59530 16200.00000 0 -15780955.240 3970521.860 19664249.578 10 0 59530 17100.00000 0 -14162107.900 2048245.747 21137506.625 10 0 59530 18000.00000 0 -12597814.798 -114176.165 22201095.459 10 0 59530 18900.00000 0 -11140463.381 -2473468.546 22834468.820 10 0 59530 19800.00000 0 -9834504.157 -4977029.500 23025397.667 10 0 59530 20700.00000 0 -8714686.200 -7564877.525 22770202.344 10 0 59530 21600.00000 0 -7804715.567 -10171912.524 22073821.629 10 0 59530 22500.00000 0 -7116391.378 -12730398.621 20949718.560 10 0 59530 23400.00000 0 -6649254.754 -15172567.252 19419624.629 10 0 59530 24300.00000 0 -6390764.535 -17433234.097 17513126.766 10 0 59530 25200.00000 0 -6316992.119 -19452322.509 15267104.176 10 0 59530 26100.00000 0 -6393806.227 -21177189.513 12725024.875 10 0 59530 27000.00000 0 -6578498.071 -22564658.437 9936114.389 10 0 59530 27900.00000 0 -6821778.855 -23582673.698 6954411.526 10 0 59530 28800.00000 0 -7070065.781 -24211508.596 3837728.607 10 0 59530 29700.00000 0 -7267960.351 -24444475.441 646535.598 10 0 59530 30600.00000 0 -7360814.188 -24288107.683 -2557210.694 10 0 59530 31500.00000 0 -7297273.610 -23761805.828 -5711269.604 10 0 59530 32400.00000 0 -7031694.664 -22896961.487 -8754328.243 10 0 59530 33300.00000 0 -6526325.314 -21735595.717 -11627197.841 10 0 59530 34200.00000 0 -5753161.160 -20328568.576 -14273970.822 10 0 59530 35100.00000 0 -4695394.572 -18733434.981 -16643115.482 10 0 59530 36000.00000 0 -3348394.211 -17012036.988 -18688486.287 10 0 59530 36900.00000 0 -1720171.726 -15227933.874 -20370229.426 10 0 59530 37800.00000 0 168685.922 -13443778.252 -21655565.541 10 0 59530 38700.00000 0 2285617.520 -11718748.653 -22519433.950 10 0 59530 39600.00000 0 4587198.339 -10106146.663 -22944985.505 10 0 59530 40500.00000 0 7020715.399 -8651259.577 -22923914.302 10 0 59530 41400.00000 0 9526142.409 -7389578.183 -22456621.624 10 0 59530 42300.00000 0 12038432.504 -6345444.284 -21552208.831 10 0 59530 43200.00000 0 14490033.480 -5531184.219 -20228299.257 10 0 59530 44100.00000 0 16813520.724 -4946764.017 -18510692.572 10 0 59530 45000.00000 0 18944237.850 -4579979.750 -16432858.386 10 0 59530 45900.00000 0 20822834.707 -4407173.846 -14035279.098 10 0 59530 46800.00000 0 22397596.656 -4394445.820 -11364655.029 10 0 59530 47700.00000 0 23626467.682 -4499304.897 -8472987.789 10 0 59530 48600.00000 0 24478682.932 -4672693.243 -5416560.249 10 0 59530 49500.00000 0 24935942.790 -4861292.775 -2254833.650 10 0 59530 50400.00000 0 24993079.989 -5010016.693 950715.836 10 0 59530 51300.00000 0 24658192.836 -5064579.091 4137797.730 10 0 59530 52200.00000 0 23952240.169 -4974032.996 7244521.023 10 0 59530 53100.00000 0 22908116.384 -4693168.801 10210596.899 10 0 59530 54000.00000 0 21569246.664 -4184671.290 12978506.824 10 0 59530 54900.00000 0 19987762.480 -3420943.919 15494613.381 10 0 59530 55800.00000 0 18222334.754 -2385523.432 17710192.589 10 0 59530 56700.00000 0 16335755.911 -1074025.184 19582368.482 10 0 59530 57600.00000 0 14392372.020 505420.624 21074932.800 10 0 59530 58500.00000 0 12455471.960 2332260.319 22159035.020 10 0 59530 59400.00000 0 10584741.790 4374132.409 22813730.634 10 0 59530 60300.00000 0 8833889.262 6587982.647 23026378.187 10 0 59530 61200.00000 0 7248536.189 8921633.005 22792878.285 10 0 59530 62100.00000 0 5864464.952 11315740.644 22117750.612 10 0 59530 63000.00000 0 4706290.758 13706066.930 21014047.673 10 0 59530 63900.00000 0 3786613.771 16025963.712 19503106.772 10 0 59530 64800.00000 0 3105685.403 18208975.111 17614144.484 10 0 59530 65700.00000 0 2651601.992 20191448.068 15383700.559 10 0 59530 66600.00000 0 2401017.329 21915043.996 12854940.972 10 0 59530 67500.00000 0 2320343.994 23329047.842 10076832.464 10 0 59530 68400.00000 0 2367393.068 24392378.542 7103203.356 10 0 59530 69300.00000 0 2493383.390 25075216.910 3991707.981 10 0 59530 70200.00000 0 2645235.694 25360182.368 802713.969 10 0 59530 71100.00000 0 2768054.757 25243008.680 -2401866.431 10 0 59530 72000.00000 0 2807694.467 24732689.675 -5559778.290 10 0 59530 72900.00000 0 2713296.730 23851087.826 -8609635.764 10 0 59530 73800.00000 0 2439695.920 22632021.345 -11492119.711 10 0 59530 74700.00000 0 1949586.023 21119867.465 -14151137.177 10 0 59530 75600.00000 0 1215357.303 19367739.996 -16534919.594 10 0 59530 76500.00000 0 220523.233 17435317.422 -18597037.636 10 0 59530 77400.00000 0 -1039324.304 15386412.577 -20297312.293 10 0 59530 78300.00000 0 -2556073.690 13286385.906 -21602603.921 10 0 59530 79200.00000 0 -4309186.465 11199510.857 -22487463.510 10 0 59530 80100.00000 0 -6266322.161 9186402.017 -22934633.136 10 0 59530 81000.00000 0 -8384470.275 7301613.770 -22935385.667 10 0 59530 81900.00000 0 -10611543.148 5591509.974 -22489696.956 10 0 59530 82800.00000 0 -12888363.828 4092493.684 -21606247.071 10 0 59530 83700.00000 0 -15150966.325 2829670.557 -20302250.472 10 0 59530 84600.00000 0 -17333112.371 1816001.195 -18603118.420 10 0 59530 85500.00000 0 -19368919.364 1051977.018 -16541960.251 10 0 59531 0.00000 0 -21195489.377 525831.986 -14158933.570 10 0 59531 900.00000 0 -22755429.928 214279.563 -11500454.935 10 0 59531 1800.00000 0 -23999158.358 83742.870 -8618290.094 10 0 59531 2700.00000 0 -24886896.496 92023.524 -5568537.757 10 0 59531 3600.00000 0 -25390269.590 190337.696 -2410530.484 10 0 59531 4500.00000 0 -25493443.818 325631.454 794326.334 10 0 59531 5400.00000 0 -25193755.100 443076.039 3983753.816 10 0 59531 6300.00000 0 -24501803.684 488636.342 7095813.311 10 0 59531 7200.00000 0 -23441011.542 411603.043 10070110.224 10 0 59531 8100.00000 0 -22046662.256 166980.722 12848964.336 10 0 59531 9000.00000 0 -20364464.635 -282369.238 15378523.960 10 0 59531 9900.00000 0 -18448701.102 -963921.500 17609802.569 10 0 59531 10800.00000 0 -16360038.824 -1894091.452 19499618.573 10 0 59531 11700.00000 0 -14163095.181 -3077310.413 21011421.001 10 0 59531 12600.00000 0 -11923858.925 -4505610.189 22115986.195 10 0 59531 13500.00000 0 -9707073.789 -6158734.688 22791973.281 10 0 59531 14400.00000 0 -7573692.380 -8004774.451 23026328.803 10 0 59531 15300.00000 0 -5578504.983 -10001298.416 22814533.599 10 0 59531 16200.00000 0 -3768040.346 -12096936.849 22160687.808 10 0 59531 17100.00000 0 -2178824.160 -14233350.885 21077432.590 10 0 59531 18000.00000 0 -836066.274 -16347508.117 19585709.917 10 0 59531 18900.00000 0 247169.979 -18374171.032 17714364.581 10 0 59531 19800.00000 0 1070282.761 -20248496.052 15499595.178 10 0 59531 20700.00000 0 1644918.553 -21908636.066 12984263.737 10 0 59531 21600.00000 0 1994240.226 -23298238.767 10217076.123 10 0 59531 22500.00000 0 2151707.258 -24368736.899 7251647.964 10 0 59531 23400.00000 0 2159419.421 -25081334.690 4145473.266 10 0 59531 24300.00000 0 2066093.681 -25408606.878 958814.931 10 0 59531 25200.00000 0 1924759.713 -25335642.666 -2246461.748 10 0 59531 26100.00000 0 1790271.560 -24860685.671 -5408090.011 10 0 59531 27000.00000 0 1716741.016 -23995241.910 -8464613.502 10 0 59531 27900.00000 0 1755002.009 -22763650.177 -11356585.129 10 0 59531 28800.00000 0 1950214.224 -21202131.764 -14027728.953 10 0 59531 29700.00000 0 2339708.579 -19357358.596 -16426041.873 10 0 59531 30600.00000 0 2951167.072 -17284599.158 -18504812.966 10 0 59531 31500.00000 0 3801215.452 -15045519.608 -20223539.996 10 0 59531 32400.00000 0 4894489.792 -12705731.928 -21548724.730 10 0 59531 33300.00000 0 6223217.938 -10332191.690 -22454531.178 10 0 59531 34200.00000 0 7767335.002 -7990554.377 -22923293.606 10 0 59531 35100.00000 0 9495129.442 -5742600.800 -22945864.221 10 0 59531 36000.00000 0 11364393.814 -3643839.132 -22521793.634 10 0 59531 36900.00000 0 13324032.765 -1741383.672 -21659340.441 10 0 59531 37800.00000 0 15316061.507 -72198.556 -20375309.706 10 0 59531 38700.00000 0 17277911.375 1338220.795 -18694723.427 10 0 59531 39600.00000 0 19144945.858 2476674.196 -16650329.467 10 0 59531 40500.00000 0 20853081.564 3342557.786 -14281958.639 10 0 59531 41400.00000 0 22341403.984 3947628.592 -11635742.669 10 0 59531 42300.00000 0 23554667.940 4315244.087 -8763208.743 10 0 59531 43200.00000 0 24445577.583 4479110.673 -5720268.757 10 0 59531 44100.00000 0 24976750.036 4481595.731 -2566123.633 10 0 59531 45000.00000 0 25122280.242 4371676.291 637895.171 10 0 59531 45900.00000 0 24868841.566 4202612.729 3829523.647 10 0 59531 46800.00000 0 24216276.420 4029447.249 6946778.757 10 0 59531 47700.00000 0 23177652.793 3906434.069 9929163.258 10 0 59531 48600.00000 0 21778785.121 3884510.746 12718838.175 10 0 59531 49500.00000 0 20057240.359 4008917.929 15261740.198 10 0 59531 50400.00000 0 18060871.604 4317068.152 17508622.577 10 0 59531 51300.00000 0 15845941.056 4836753.453 19416000.076 10 0 59531 52200.00000 0 13474910.805 5584767.114 20946980.633 10 0 59531 53100.00000 0 11013993.407 6565997.241 22071968.687 10 0 59531 54000.00000 0 8530563.558 7773030.209 22769227.832 10 0 59531 54900.00000 0 6090537.502 9186280.795 23025293.029 10 0 59531 55800.00000 0 3755827.811 10774644.012 22835225.319 10 0 59531 56700.00000 0 1581977.674 12496642.253 22202704.815 10 0 59531 57600.00000 0 -383928.686 14302020.972 21139960.379 10 0 59531 58500.00000 0 -2104994.180 16133727.608 19667537.264 10 0 59531 59400.00000 0 -3555805.238 17930192.624 17813906.680 10 0 59531 60300.00000 0 -4723243.685 19627818.935 15614923.954 10 0 59531 61200.00000 0 -5606781.123 21163576.955 13113144.779 10 0 59531 62100.00000 0 -6218244.232 22477597.751 10357011.556 10 0 59531 63000.00000 0 -6581061.259 23515656.660 7399924.494 10 0 59531 63900.00000 0 -6729021.429 24231443.224 4299214.493 10 0 59531 64800.00000 0 -6704599.581 24588522.044 1115036.916 10 0 59531 65700.00000 0 -6556916.744 24561901.693 -2090792.713 10 0 59531 66600.00000 0 -6339422.794 24139144.745 -5255998.534 10 0 59531 67500.00000 0 -6107399.419 23320971.080 -8319056.281 10 0 59531 68400.00000 0 -5915389.486 22121327.718 -11220393.348 10 0 59531 69300.00000 0 -5814662.289 20566920.922 -13903553.033 10 0 59531 70200.00000 0 -5850822.873 18696229.008 -16316299.655 10 0 59531 71100.00000 0 -6061667.732 16558036.214 -18411642.390 10 0 59531 72000.00000 0 -6475378.803 14209548.307 -20148757.201 10 0 59531 72900.00000 0 -7109133.453 11714168.277 -21493788.428 10 0 59531 73800.00000 0 -7968190.517 9139024.782 -22420514.000 10 0 59531 74700.00000 0 -9045492.283 6552356.505 -22910860.996 10 0 59531 75600.00000 0 -10321800.415 4020861.561 -22955261.284 10 0 59531 76500.00000 0 -11766361.209 1607122.445 -22552840.206 10 0 59531 77400.00000 0 -13338073.026 -632786.069 -21711434.488 10 0 59531 78300.00000 0 -14987107.475 -2651406.632 -20447438.985 10 0 59531 79200.00000 0 -16656916.624 -4411639.049 -18785485.210 10 0 59531 80100.00000 0 -18286541.978 -5888038.083 -16757957.944 10 0 59531 81000.00000 0 -19813128.140 -7067616.155 -14404359.478 10 0 59531 81900.00000 0 -21174535.262 -7950118.695 -11770534.052 10 0 59531 82800.00000 0 -22311940.034 -8547762.180 -8907768.051 10 0 59531 83700.00000 0 -23172315.471 -8884447.737 -5871783.980 10 0 59531 84600.00000 0 -23710684.826 -8994485.372 -2721648.443 10 0 59531 85500.00000 0 -23892054.603 -8920884.521 481383.786 99